When you browse on this site, cookies collect data to enhance your experience and personalize the content and advertising you see.
Visit our Privacy Policy to learn more. By continuing to use the site, you agree to this use of cookies and data.
  • In Hungary
  • List of Countries
  • For 7 days
  • Water Temperature
  • Weather Map
  • News
  • Weather Widgets
  • user-avatar
    Login

    Hourly Weather Tolstovo-Vasyukovskoe

    Today, 19 February, Wednesday

    Time Temperature Precipitation Wind Pressure Humidity
    00:00 +1°C° 0 mm 0 mps 754 mmHg 86%
    01:00 +2°C° 0 mm 1 mps 754 mmHg 86%
    02:00 +2°C° 0 mm 1 mps 754 mmHg 85%
    03:00 +2°C° 0 mm 1 mps 753 mmHg 84%
    04:00 +1°C° 0 mm 2 mps 753 mmHg 83%
    05:00 +1°C° 0 mm 2 mps 753 mmHg 83%
    06:00 +1°C° 0 mm 2 mps 753 mmHg 82%
    07:00 +2°C° 0 mm 2 mps 753 mmHg 77%
    08:00 +3°C° 0 mm 2 mps 753 mmHg 72%
    09:00 +5°C° 0 mm 1 mps 753 mmHg 67%
    10:00 +6°C° 0 mm 1 mps 753 mmHg 60%
    11:00 +8°C° 0 mm 1 mps 752 mmHg 54%
    12:00 +10°C° 0 mm 1 mps 752 mmHg 47%
    13:00 +10°C° 0 mm 1 mps 752 mmHg 44%
    14:00 +11°C° 0 mm 1 mps 751 mmHg 42%
    15:00 +12°C° 0 mm 1 mps 751 mmHg 40%
    16:00 +11°C° 0 mm 1 mps 751 mmHg 46%
    17:00 +9°C° 0 mm 1 mps 751 mmHg 52%
    18:00 +8°C° 0 mm 1 mps 751 mmHg 58%
    19:00 +7°C° 0 mm 1 mps 751 mmHg 60%
    20:00 +7°C° 0 mm 1 mps 751 mmHg 62%
    21:00 +6°C° 0 mm 1 mps 751 mmHg 65%
    22:00 +6°C° 0 mm 1 mps 751 mmHg 67%
    23:00 +5°C° 0 mm 1 mps 751 mmHg 69%

    Tomorrow, 20 February, Thursday

    Time Temperature Precipitation Wind Pressure Humidity
    00:00 +4°C° 0 mm 0 mps 751 mmHg 71%
    01:00 +3°C° 0 mm 0 mps 751 mmHg 73%
    02:00 +3°C° 0 mm 0 mps 751 mmHg 74%
    03:00 +3°C° 0 mm 0 mps 750 mmHg 76%
    04:00 +3°C° 0 mm 0 mps 751 mmHg 76%
    05:00 +4°C° 0 mm 1 mps 751 mmHg 76%
    06:00 +4°C° 0 mm 1 mps 751 mmHg 76%
    07:00 +5°C° 0 mm 1 mps 751 mmHg 75%
    08:00 +5°C° 0 mm 2 mps 752 mmHg 73%
    09:00 +6°C° 0 mm 2 mps 752 mmHg 71%
    10:00 +7°C° 0 mm 2 mps 752 mmHg 67%
    11:00 +8°C° 0 mm 2 mps 752 mmHg 63%
    12:00 +9°C° 0 mm 2 mps 751 mmHg 58%
    13:00 +10°C° 0 mm 3 mps 751 mmHg 57%
    14:00 +10°C° 0 mm 3 mps 751 mmHg 55%
    15:00 +11°C° 0 mm 4 mps 751 mmHg 53%
    16:00 +8°C° 0 mm 4 mps 751 mmHg 59%
    17:00 +8°C° 0 mm 3 mps 751 mmHg 64%
    18:00 +7°C° 0 mm 3 mps 751 mmHg 70%
    19:00 +5°C° 0 mm 3 mps 752 mmHg 72%
    20:00 +5°C° 0 mm 3 mps 752 mmHg 75%
    21:00 +4°C° 0 mm 3 mps 752 mmHg 78%
    22:00 +4°C° 0 mm 3 mps 752 mmHg 81%
    23:00 +3°C° 0 mm 3 mps 752 mmHg 84%

    Day after tomorrow, 21 February, Friday

    Time Temperature Precipitation Wind Pressure Humidity
    00:00 +3°C° 0 mm 3 mps 752 mmHg 87%
    01:00 +3°C° 0 mm 3 mps 752 mmHg 89%
    02:00 +2°C° 0 mm 3 mps 752 mmHg 91%
    03:00 +2°C° 0 mm 3 mps 752 mmHg 93%
    04:00 +1°C° 0 mm 3 mps 752 mmHg 93%
    05:00 +1°C° 0 mm 3 mps 752 mmHg 92%
    06:00 +1°C° 0 mm 3 mps 752 mmHg 92%
    07:00 0°C° 0 mm 4 mps 753 mmHg 88%
    08:00 0°C° 0 mm 4 mps 753 mmHg 85%
    09:00 +1°C° 0 mm 4 mps 753 mmHg 82%
    16:00 +5°C° 0 mm 4 mps 752 mmHg 71%
    17:00 +4°C° 0 mm 4 mps 753 mmHg 73%
    18:00 +4°C° 0 mm 4 mps 753 mmHg 75%
    19:00 +4°C° 0 mm 4 mps 753 mmHg 75%
    20:00 +4°C° 0 mm 3 mps 753 mmHg 75%
    21:00 +4°C° 0 mm 3 mps 754 mmHg 75%
    22:00 +4°C° 0 mm 3 mps 753 mmHg 76%
    23:00 +4°C° 0 mm 3 mps 753 mmHg 76%

    22 February, Saturday

    Time Temperature Precipitation Wind Pressure Humidity
    00:00 +4°C° 0 mm 3 mps 753 mmHg 77%
    01:00 +3°C° 0 mm 3 mps 753 mmHg 77%
    02:00 +2°C° 0 mm 3 mps 753 mmHg 77%
    03:00 +1°C° 0 mm 3 mps 753 mmHg 77%
    04:00 +1°C° 0 mm 3 mps 754 mmHg 79%
    05:00 0°C° 0 mm 3 mps 754 mmHg 80%
    06:00 0°C° 0 mm 3 mps 754 mmHg 82%
    07:00 -1°C° 0 mm 4 mps 754 mmHg 78%
    08:00 0°C° 0 mm 4 mps 754 mmHg 74%
    09:00 +1°C° 0 mm 5 mps 754 mmHg 71%
    10:00 +2°C° 0 mm 5 mps 754 mmHg 66%
    11:00 +3°C° 0 mm 5 mps 754 mmHg 61%
    12:00 +5°C° 0 mm 5 mps 754 mmHg 56%
    13:00 +5°C° 0 mm 5 mps 754 mmHg 55%
    14:00 +6°C° 0 mm 5 mps 754 mmHg 53%
    15:00 +6°C° 0 mm 4 mps 753 mmHg 52%
    16:00 +6°C° 0 mm 4 mps 753 mmHg 55%
    17:00 +5°C° 0 mm 3 mps 754 mmHg 59%
    18:00 +4°C° 0 mm 3 mps 754 mmHg 62%
    19:00 +4°C° 0 mm 3 mps 754 mmHg 65%
    20:00 +3°C° 0 mm 3 mps 754 mmHg 67%
    21:00 +3°C° 0 mm 3 mps 754 mmHg 69%
    22:00 +3°C° 0 mm 3 mps 754 mmHg 72%
    23:00 +3°C° 0 mm 2 mps 754 mmHg 75%

    23 February, Sunday

    Time Temperature Precipitation Wind Pressure Humidity
    00:00 +3°C° 0 mm 2 mps 754 mmHg 77%
    01:00 +2°C° 0 mm 2 mps 754 mmHg 80%
    02:00 +3°C° 0 mm 1 mps 754 mmHg 83%
    03:00 +2°C° 0 mm 1 mps 754 mmHg 86%
    04:00 +2°C° 0 mm 1 mps 754 mmHg 87%
    05:00 +2°C° 0 mm 1 mps 754 mmHg 88%
    06:00 0°C° 0 mm 0 mps 754 mmHg 89%
    07:00 +3°C° 0 mm 1 mps 754 mmHg 84%
    08:00 +4°C° 0 mm 1 mps 754 mmHg 79%
    09:00 +4°C° 0 mm 2 mps 754 mmHg 73%
    10:00 +5°C° 0 mm 2 mps 753 mmHg 70%
    11:00 +7°C° 0 mm 2 mps 753 mmHg 66%
    12:00 +8°C° 0 mm 3 mps 753 mmHg 62%
    13:00 +8°C° 0 mm 3 mps 752 mmHg 61%
    14:00 +8°C° 0 mm 4 mps 752 mmHg 61%
    15:00 +8°C° 0 mm 5 mps 752 mmHg 60%
    16:00 +8°C° 0 mm 4 mps 751 mmHg 63%
    17:00 +8°C° 0 mm 3 mps 751 mmHg 66%
    18:00 +7°C° 0 mm 2 mps 751 mmHg 68%
    19:00 +7°C° 0 mm 2 mps 751 mmHg 70%
    20:00 +7°C° 0 mm 2 mps 751 mmHg 71%
    21:00 +6°C° 0 mm 2 mps 751 mmHg 73%
    22:00 +6°C° 0 mm 2 mps 750 mmHg 76%
    23:00 +5°C° 0 mm 3 mps 750 mmHg 78%

    24 February, Monday

    Time Temperature Precipitation Wind Pressure Humidity
    00:00 +5°C° 0 mm 3 mps 750 mmHg 81%
    01:00 +4°C° 0 mm 3 mps 750 mmHg 80%
    02:00 +4°C° 0 mm 3 mps 749 mmHg 79%
    03:00 +4°C° 0 mm 3 mps 749 mmHg 78%
    04:00 +3°C° 0 mm 3 mps 749 mmHg 78%
    05:00 +3°C° 0 mm 3 mps 749 mmHg 78%
    06:00 +3°C° 0 mm 3 mps 748 mmHg 77%
    07:00 +4°C° 0.1 mm 3 mps 748 mmHg 77%
    08:00 +4°C° 0.1 mm 3 mps 748 mmHg 76%
    09:00 +4°C° 0.1 mm 3 mps 748 mmHg 76%
    10:00 +5°C° 0 mm 3 mps 748 mmHg 75%
    11:00 +5°C° 0 mm 3 mps 747 mmHg 74%
    12:00 +7°C° 0 mm 2 mps 746 mmHg 73%
    13:00 +7°C° 0 mm 3 mps 745 mmHg 72%
    14:00 +7°C° 0 mm 4 mps 745 mmHg 71%
    15:00 +7°C° 0 mm 5 mps 744 mmHg 70%
    16:00 +6°C° 0 mm 5 mps 743 mmHg 73%
    17:00 +5°C° 0 mm 6 mps 743 mmHg 75%
    18:00 +4°C° 0 mm 6 mps 742 mmHg 78%
    19:00 +4°C° 0 mm 6 mps 742 mmHg 77%
    20:00 +4°C° 0 mm 7 mps 741 mmHg 77%
    21:00 +3°C° 0 mm 7 mps 741 mmHg 76%
    22:00 +3°C° 0 mm 7 mps 740 mmHg 79%
    23:00 +3°C° 0 mm 6 mps 740 mmHg 82%
    Show more